Tracking 29892 objects as of 21-Nov-2024
HD Live streaming from Space Station
objects crossing your sky now

PEGASUS R/B

Track PEGASUS R/B now!
10-day predictions


NORAD ID: 28983
Int'l Code: 2006-008D
Perigee: 301.7 km
Apogee: 3,045.9 km
Inclination: 105.5 °
Period: 119.7 minutes
Semi major axis: 8044 km
RCS: 1.9681 m2 (large)
Launch date: March 22, 2006
Source: United States (US)
Launch site: Pegasus launched from Western Range Air Space (WRAS)

Note: This is a ROCKET BODY
Your satellite tracking list
Your tracking list is empty




NASA's NSSDC Master Catalog

Two Line Element Set (TLE):
1 28983U 06008D   24325.24408523  .00058951  31274-5  21055-2 0  9993
2 28983 105.5136 257.7556 1705591  21.0068 345.3216 12.03179522756560
Source of the keplerian elements: AFSPC